Lid_Strength_Index
9 13 15 12 11 11 12 13 14 12 10 11 11 12 11 9 10 10 9 9 9 9 8 7 7 7 8 8 8 8 8 8 8 8 8 7 8 6 7 6 5 5 5 6
13 14 11 10 10 11 12 12 13 11 9 11 12 12 11 10 10 8 9 9 9 8 8 7 8 8 9 9 9 8 9 9 8 8 8 8 7 6 6 6 6 6 6 6
14 12 9 10 11 12 12 12 12 12 10 11 11 14 12 10 9 8 8 8 7 8 9 8 8 9 9 9 9 8 9 9 9 9 8 8 8 8 8 8 8 7 6 7
12 10 11 11 12 11 14 10 10 11 12 15 12 17 13 11 10 9 8 9 9 8 8 9 9 9 10 10 9 9 9 9 9 9 9 10 10 11 10 10 8 8 7 8
13 12 12 13 11 10 12 9 10 11 13 14 14 16 15 11 11 10 9 9 9 9 9 10 10 9 9 9 10 9 9 9 9 10 10 11 11 10 9 9 9 9 8 8
12 9 11 11 10 10 9 10 11 12 14 19 14 15 16 13 11 9 8 8 9 9 9 9 9 9 10 10 10 10 10 10 10 10 11 11 11 11 11 10 10 9 9 8
12 12 10 10 12 11 11 14 19 20 20 19 13 14 14 11 8 8 9 8 9 9 10 9 9 10 10 11 11 10 11 11 11 11 10 10 10 9 10 10 9 9 9 9
16 17 12 10 11 12 12 13 18 20 20 18 12 16 13 9 7 7 7 8 8 9 9 9 9 10 11 11 11 11 11 11 10 9 10 9 9 9 9 9 9 9 9 9
15 15 10 10 10 10 12 14 12 14 14 19 16 13 10 8 8 8 8 9 10 10 9 10 9 10 11 12 12 12 11 11 10 9 9 9 9 9 9 9 9 9 9 9
11 15 11 10 9 10 11 10 14 15 19 20 17 16 15 12 11 9 9 9 10 9 9 9 10 10 11 11 11 11 11 10 9 9 9 9 9 9 9 9 10 9 9 9
11 12 13 10 12 13 13 13 12 12 14 19 20 19 11 11 9 9 8 9 10 10 10 9 9 10 10 11 11 11 11 10 9 9 9 9 9 9 9 9 9 9 10 10
9 11 14 13 10 9 11 12 12 16 17 16 18 18 9 8 8 7 8 8 9 9 9 9 10 10 10 11 11 11 10 9 10 9 8 8 10 10 11 10 11 11 11 10
9 12 16 14 11 11 12 11 11 10 13 16 19 17 8 7 8 7 7 7 8 9 9 9 10 10 10 11 11 11 11 10 9 8 9 10 11 11 11 11 11 11 11 11
8 12 13 16 14 11 12 11 11 12 16 15 15 14 11 9 9 8 7 8 8 8 8 8 10 10 10 10 11 11 10 10 9 8 10 11 11 11 11 11 11 11 12 12
10 15 13 11 11 11 12 12 11 13 13 16 13 14 11 9 9 8 7 7 8 8 8 8 10 11 11 11 11 10 10 9 8 9 11 11 11 11 11 12 12 13 13 12
10 14 13 14 12 12 13 11 11 12 12 12 12 13 8 7 6 7 7 7 7 8 8 7 10 11 10 10 11 9 9 9 10 11 11 11 11 12 12 13 12 12 13 13
11 14 14 17 13 13 16 13 12 11 10 11 14 11 8 8 8 7 7 6 7 7 7 8 10 10 10 10 10 9 9 10 11 11 12 12 12 13 13 12 13 13 14 14
12 13 13 16 14 20 12 9 10 10 10 9 8 8 8 8 7 6 6 6 7 7 7 8 10 10 10 10 8 8 10 11 11 12 12 12 13 14 13 13 14 15 14 17
8 12 15 17 17 14 12 10 10 11 11 8 9 8 8 7 7 8 6 6 6 7 8 10 10 11 10 9 8 9 11 11 12 13 13 13 14 14 14 18 19 17 15 16
9 9 13 16 19 19 13 8 7 8 14 8 8 8 9 8 12 11 9 8 10 10 10 11 11 10 10 9 9 10 11 12 13 14 13 13 13 16 20 20 19 17 16 14
13 13 15 15 16 15 10 8 7 14 14 7 7 8 9 10 10 10 10 11 11 11 11 11 10 10 10 10 11 12 13 13 13 12 13 13 13 14 15 16 17 17 17 14
14 15 15 14 17 18 7 7 12 9 8 8 7 8 10 10 10 11 11 11 11 11 11 10 11 10 9 10 11 14 14 13 13 13 13 14 14 13 13 15 15 13 15 15
15 12 14 13 14 8 7 8 7 6 7 7 7 8 9 11 11 10 11 11 11 11 10 10 10 10 10 10 12 13 13 13 13 13 17 15 13 13 13 14 15 16 15 16
10 8 12 11 9 8 7 6 6 6 6 6 6 9 9 10 10 11 11 11 11 11 11 10 10 11 11 11 11 12 12 12 12 13 14 14 14 14 15 15 15 16 17 17
10 9 11 11 9 8 7 7 6 6 6 6 7 9 9 10 10 11 11 11 11 11 11 10 11 11 11 11 12 11 11 11 13 13 14 15 15 15 15 16 17 16 18 16
8 10 12 12 8 8 8 6 5 6 6 7 9 9 9 9 10 10 11 11 11 11 11 11 11 11 11 11 11 11 11 11 12 14 14 15 15 16 16 16 16 14 14 14